GLOBALSTAR M082

Last updated on Mon Sep 21 2026 00:03:12 GMT+0000 (Coordinated Universal Time)

1 38042U 11080C 26262.71112377 -.00000106 00000+0 -10050-4 0 9992 2 38042 52.0084 46.7770 0000901 112.4178 260.9345 12.62262798681530
UTC large
Height (km)
Speed (km/s)
/
Latitude / Longitude
Inclination (degrees)
Orbital Period (minutes)
Azimuth
Elevation
Range (km)
Doppler Factor

Next 0 passes for location: London (51.5072 / 0.1276)

No passes found over London.
GLOBALSTAR M082